Regional Weather Roundup
Issued by NWS

Home | Current Version | Previous Version | Text Only | Print | Product List | Glossary Off
Versions: 1 2 3 4 5 6 7 8 9 10 11 12 13 14 15 16 17 18 19 20 21 22 23 24 25 26 27 28 29 30 31 32 33 34 35 36 37 38 39 40 41 42 43 44 45 46 47 48 49 50

000
ASUS43 KOAX 030710
RWRNE

WEATHER ROUNDUP FOR NEBRASKA
NATIONAL WEATHER SERVICE OMAHA NE
200 AM CDT MON AUG 03 2015

NOTES: SATELLITE DATA IS BEING USED TO AUGMENT CLOUD COVER ABOVE
       12000 FEET.
       "FAIR" INDICATES FEW OR NO CLOUDS BELOW 12,000 FEET WITH NO
       SIGNIFICANT WEATHER AND/OR OBSTRUCTIONS TO VISIBILITY.

  * THESE STATIONS DO NOT REPORT WEATHER SUCH AS RAIN...SNOW OR FOG.

NEZ001>004-019>022-054>056-030800-
NEBRASKA PANHANDLE

CITY           SKY/WX    TMP DP  RH WIND       PRES   REMARKS
SCOTTSBLUFF    CLEAR     66  56  70 E9        30.00S
ALLIANCE       PTCLDY    61  55  81 E6        30.02S
CHADRON        CLEAR     63  57  81 NE8       30.00F
KIMBALL        CLOUDY    64  54  68 SW3       30.05S
SIDNEY         MOCLDY    66  55  67 S7        30.04S
$$

NEZ057>060-069>072-079>082-030800-
SOUTHWEST NEBRASKA

CITY           SKY/WX    TMP DP  RH WIND       PRES   REMARKS
NORTH PLATTE   PTCLDY    63  58  83 NE8       29.98R
IMPERIAL       PTCLDY    69  54  58 SW6       29.98S
LEXINGTON      PTCLDY    62  57  86 E3        29.98R
MCCOOK         PTCLDY    66  58  75 W7        29.93F
OGALLALA       PTCLDY    70  57  63 CALM      29.99S
$$

NEZ005>010-023>029-035>040-094-030800-
NORTH CENTRAL NEBRASKA

CITY           SKY/WX    TMP DP  RH WIND       PRES   REMARKS
AINSWORTH      CLEAR     65  62  91 CALM      30.01S
BROKEN BOW     PTCLDY    67  61  81 N5        29.98S
O`NEILL        CLEAR     65  61  85 NE6       29.98S
ORD            CLEAR     68  63  84 CALM      29.95R
THEDFORD       PTCLDY    66  61  85 CALM      30.02S
$$

NEZ041-046>049-061>064-073>077-083>087-030800-
SOUTH CENTRAL NEBRASKA

CITY           SKY/WX    TMP DP  RH WIND       PRES   REMARKS
GRAND ISLAND   PTCLDY    65  63  93 NE3       29.95R
AURORA         PTCLDY    68  67  99 N7        29.93S
HASTINGS       PTCLDY    68  62  81 NE5       29.93S
HEBRON         PTCLDY    73  67  80 CALM      29.88F
HOLDREGE       PTCLDY    64  58  80 CALM      29.96S
KEARNEY *      MOCLDY    66  55  68 NW5       29.96F
YORK           CLEAR     68  66  94 N7        29.92S
$$

NEZ011>018-030>034-042>045-030800-
NORTHEAST NEBRASKA

CITY           SKY/WX    TMP DP  RH WIND       PRES   REMARKS
NORFOLK        CLEAR     71  62  73 NE7       29.94R
ALBION         CLEAR     70  60  70 NE8       29.95R
BLAIR          CLEAR     71  68  90 N9        29.91S
COLUMBUS *     CLEAR     64  59  82 N3        29.94R
FREMONT        CLEAR     73  67  82 NE5       29.91S
TEKAMAH        CLEAR     69  66  90 N5        29.92R
WAYNE          CLEAR     65  62  91 CALM      29.95R
$$

NEZ050>053-065>068-078-088>093-030800-
SOUTHEAST NEBRASKA

CITY           SKY/WX    TMP DP  RH WIND       PRES   REMARKS
LINCOLN        CLEAR     69  63  81 N9        29.89F
OMAHA EPPLEY   PTCLDY    73  71  93 N7        29.89R
BEATRICE       CLEAR     75  72  89 E3        29.87S
FALLS CITY     MOCLDY    75  73  93 E7        29.88R
NEBRASKA CITY  CLEAR     73  73  97 NE5       29.87S
PLATTSMOUTH    MOCLDY    74  71  91 NE3       29.89R
$$

NEZ044-045-051>053-067-030800-
OMAHA AREA

CITY           SKY/WX    TMP DP  RH WIND       PRES   REMARKS
OMAHA EPPLEY   PTCLDY    73  71  93 N7        29.89R
BLAIR          CLEAR     71  68  90 N9        29.91S
FREMONT        CLEAR     73  67  82 NE5       29.91S
MILLARD        CLEAR     77  72  83 CALM      29.89R
OFFUTT AFB     CLEAR     75  72  91 NE6       29.87R
PLATTSMOUTH    MOCLDY    74  71  91 NE3       29.89R
WAHOO          FAIR      69  67  95 N6        29.91R
$$



USA.gov is the U.S. government's official web portal to all federal, state and local government web resources and services.